Regional Weather Roundup
Issued by NWS Sterling, VA

Home | Current Version | Previous Version | Text Only | Print | Product List | Glossary Off
Versions: 1 2 3 4 5 6 7 8 9 10 11 12 13 14 15 16 17 18 19 20 21 22 23 24 25 26 27 28 29 30 31 32 33 34 35 36 37 38 39 40 41 42 43 44 45 46 47 48 49 50

418
ASUS41 KLWX 281511
RWRLWX

REGIONAL WEATHER ROUNDUP
NATIONAL WEATHER SERVICE BALTIMORE MD/WASHINGTON DC
1100 AM EDT WED JUN 28 2017

Note: "FAIR" indicates few or no clouds below 12,000 feet
with no significant weather and/or obstructions to visibility.
 TC=TEMPERATURE CELSIUS

 * =Non NWS site. Station does not report precipitation (e.g. rain,
    snow, etc.), thunder, or fog.

DCZ001-MDZ009-015-VAZ040>042-051-053>054-281600-
WASHINGTON METRO

CITY           SKY/WX    TMP DP  RH WIND       PRES   REMARKS
WASHINGTON NAT MOSUNNY   76  47  35 VRB7      30.21R
DULLES         MOSUNNY   74  50  42 W6        30.21S
ANDREWS AFB    MOSUNNY   74  47  38 CALM      30.19S
FT BELVOIR     SUNNY     76  47  35 W7        30.21R
QUANTICO       MOSUNNY   76  51  41 NW6       30.22R
COLLEGE PARK*  SUNNY     74  46  37 NW7       30.20R
LEESBURG*      SUNNY     75  55  50 NW6       30.22S
MANASSAS*      SUNNY     73  52  46 VRB5      30.21F
GAITHERSBURG*  SUNNY     72  51  47 W7        30.22S

$$

MDZ006>007-011-014-281600-
BALTIMORE METRO

CITY           SKY/WX    TMP DP  RH WIND       PRES   REMARKS
BWI AIRPORT    MOSUNNY   75  48  38 NW9       30.19S
MD SCIENCE CTR   N/A     76  47  35 MISG      30.19S
MARTIN STATE   MOSUNNY   75  48  38 NW6       30.20S
ANNAPOLIS      SUNNY     71  51  49 NW7       30.20R
FORT MEADE*    SUNNY     73  48  40 NW6G16    30.22S

$$

MDZ012-015-019>023-281600-
MARYLAND EASTERN SHORE

CITY           SKY/WX    TMP DP  RH WIND       PRES   REMARKS
OCEAN CITY     SUNNY     75  52  44 N9        30.18R
SALISBURY      SUNNY     75  50  41 NW10      30.18R
BAY BRIDGE AP* SUNNY     73  50  43 NW6       30.20S
CAMBRIDGE*     SUNNY     73  50  43 NW7G14    30.20R
EASTON*        SUNNY     73  46  38 N7        30.23R

$$

MDZ017>025-281600-
SOUTHERN MARYLAND

CITY           SKY/WX    TMP DP  RH WIND       PRES   REMARKS
PATUXENT RIVER MOSUNNY   73  53  49 CALM      30.20R
ST INIGOES     SUNNY     76  53  44 VRB3      30.19R
LEONARDTOWN*   SUNNY     72  46  40 NW6       30.22R

$$

MDZ003>005-281600-
NORTH CENTRAL MARYLAND

CITY           SKY/WX    TMP DP  RH WIND       PRES   REMARKS
FREDERICK*     SUNNY     73  46  38 VRB5      30.23S
HAGERSTOWN APT SUNNY     71  52  50 CALM      30.20F
WESTMINSTER*   SUNNY     72  48  43 W7        30.21R

$$

MDZ501>502-281600-
WESTERN MARYLAND

CITY           SKY/WX    TMP DP  RH WIND       PRES   REMARKS
OAKLAND*       NOT AVBL
CUMBERLAND*    SUNNY     68  55  64 S3        30.25F

$$

VAZ025>031-281600-
SHENANDOAH VALLEY

CITY           SKY/WX    TMP DP  RH WIND       PRES   REMARKS
WINCHESTER*    MOSUNNY   70  48  46 N3        30.21F
FRONT ROYAL*   PTSUNNY   72  52  49 S8        30.21S
LURAY*         SUNNY     70  52  52 CALM      30.22F
NEW MARKET*    SUNNY     71  47  42 CALM      30.21F
STAUNTON*      SUNNY     69  47  46 CALM      30.25F
WAYNESBORO*    SUNNY     68  46  44 NW3       30.25F

$$

WVZ021-048>050-054>055-281600-
EASTERN WEST VIRGINIA PANHANDLE

CITY           SKY/WX    TMP DP  RH WIND       PRES   REMARKS
MARTINSBURG    SUNNY     72  47  40 VRB3      30.20S
PETERSBURG*    SUNNY     72  52  49 CALM      30.22F

$$

VAZ036>039-050-281600-
CENTRAL FOOTHILLS

CITY           SKY/WX    TMP DP  RH WIND       PRES   REMARKS
CHARLOTTESVILL SUNNY     74  49  41 VRB5      30.22S
CULPEPER*      SUNNY     74  52  45 CALM      30.22S
ORANGE*        SUNNY     73  50  43 NW3       30.21F
GORDONSVILLE*  SUNNY     73  47  39 NW5       30.21S
WARRENTON*     SUNNY     76  44  31 S5        30.21S

$$

VAZ055>057-281600-
NORTH AND CENTRAL PIEDMONT

CITY           SKY/WX    TMP DP  RH WIND       PRES   REMARKS
FREDERICKSBRG* SUNNY     75  51  43 NW6       30.21R
STAFFORD*      SUNNY     74  49  40 W5        30.26R

$$

NCZ024-NYZ072-PAZ021-071-VAZ022-071-281600-
OTHER REGIONAL OBSERVATIONS

CITY           SKY/WX    TMP DP  RH WIND       PRES   REMARKS
NEW YORK CITY  SUNNY     71  49  45 VRB6      30.15R
PHILADELPHIA   MOSUNNY   73  46  38 NW10      30.17R
PITTSBURGH     MOSUNNY   69  48  47 SW9       30.18F
ROANOKE        MOSUNNY   72  49  44 VRB5      30.26F
RICHMOND       MOSUNNY   76  51  41 NE10      30.21R
RALEIGH        MOSUNNY   77  52  41 VRB6      30.23R

$$

ANZ530>537-281600-
MARINE OBSERVATIONS

STATION/POSITION TIME  TEMP    WIND        PRES
                       AIR SEA DIR/SP/G
                 (UTC) (F)     (DEG/KT/KT) (MB)
THOMAS PT LIGHT  1500   70 76  160/  3/  5   N/A
BALT KEY BRIDGE  1448   71     290/  3/  4 1022.2R
COVE POINT       1448   70     350/  7/  9 1023.4R
LEWISETTA        1448   72 78   30/  4/  6 1022.6R
SOLOMONS ISLAND  1448   72 78  340/  6/ 12   N/A
PINEY POINT      1442          320/  7/  9   N/A

$$





USA.gov is the U.S. government's official web portal to all federal, state and local government web resources and services.